CES5198 ZYHB-ZBAD

Flight info

Callsign CES5198
Flight time 1h 53m
Altitude 32100
Route LEGAG W204 RUSBO G212 BUMDU
Aircraft A320/M-SDE3FGHIRWY/LB1

Departure

Time 2026-04-25 10:18
Airport Harbin Taiping International Airport (ZYHB)

Arrival

Time 2026-04-25 12:12
Airport Beijing Daxing International Airport (ZBAD)
Time Latitude Longitude Altitude Speed Heading
2026-04-25 09:52 45.61731 126.23379 465 ft 0 kts 276°
2026-04-25 10:06 45.61730 126.23384 465 ft 2 kts 276°
2026-04-25 10:06 45.61728 126.23411 465 ft 3 kts 277°
2026-04-25 10:06 45.61726 126.23438 463 ft 2 kts 277°
2026-04-25 10:06 45.61725 126.23465 462 ft 3 kts 258°
2026-04-25 10:07 45.61731 126.23490 463 ft 3 kts 227°
2026-04-25 10:07 45.61747 126.23507 459 ft 3 kts 202°
2026-04-25 10:07 45.61759 126.23514 462 ft 1 kts 198°
2026-04-25 10:07 45.61763 126.23515 464 ft 0 kts 198°
2026-04-25 10:10 45.61761 126.23514 464 ft 1 kts 198°
2026-04-25 10:10 45.61735 126.23502 464 ft 6 kts 198°
2026-04-25 10:10 45.61689 126.23517 464 ft 10 kts 155°
2026-04-25 10:11 45.61623 126.23560 464 ft 10 kts 155°
2026-04-25 10:11 45.61567 126.23616 464 ft 12 kts 129°
2026-04-25 10:11 45.61521 126.23694 464 ft 9 kts 136°
2026-04-25 10:11 45.61465 126.23678 464 ft 8 kts 219°
2026-04-25 10:12 45.61425 126.23632 464 ft 7 kts 219°
2026-04-25 10:12 45.61372 126.23570 465 ft 13 kts 219°
2026-04-25 10:12 45.61258 126.23553 463 ft 7 kts 127°
2026-04-25 10:13 45.61256 126.23558 462 ft 0 kts 123°
2026-04-25 10:14 45.61253 126.23571 464 ft 4 kts 108°
2026-04-25 10:14 45.61252 126.23640 464 ft 8 kts 83°
2026-04-25 10:15 45.61260 126.23731 464 ft 9 kts 81°
2026-04-25 10:15 45.61283 126.23780 466 ft 0 kts 38°
2026-04-25 10:17 45.61287 126.23783 466 ft 4 kts 38°
2026-04-25 10:17 45.61467 126.23994 462 ft 70 kts 39°
2026-04-25 10:17 45.62011 126.24630 459 ft 129 kts 39°
2026-04-25 10:18 45.62821 126.25579 601 ft 161 kts 37°
2026-04-25 10:18 45.63666 126.26574 1376 ft 156 kts 34°
2026-04-25 10:18 45.64655 126.27157 2076 ft 156 kts
2026-04-25 10:18 45.65738 126.26751 2497 ft 173 kts 334°
2026-04-25 10:19 45.66886 126.25913 2789 ft 197 kts 334°
2026-04-25 10:19 45.68180 126.24966 3111 ft 222 kts 334°
2026-04-25 10:19 45.69590 126.23938 3851 ft 230 kts 333°
2026-04-25 10:19 45.71020 126.22897 4777 ft 231 kts 333°
2026-04-25 10:20 45.72460 126.21851 5687 ft 234 kts 331°
2026-04-25 10:20 45.73899 126.20744 6562 ft 234 kts 321°
2026-04-25 10:20 45.75051 126.19137 7383 ft 233 kts 301°
2026-04-25 10:20 45.75778 126.17004 7911 ft 244 kts 284°
2026-04-25 10:21 45.76301 126.14669 8747 ft 247 kts 283°
2026-04-25 10:21 45.76831 126.12327 9714 ft 247 kts 282°
2026-04-25 10:21 45.77368 126.09976 10444 ft 255 kts 282°
2026-04-25 10:21 45.77945 126.07448 10704 ft 278 kts 283°
2026-04-25 10:22 45.78558 126.04707 11014 ft 296 kts 281°
2026-04-25 10:22 45.78769 126.01826 11688 ft 295 kts 265°
2026-04-25 10:22 45.78456 125.98928 12504 ft 295 kts 259°
2026-04-25 10:22 45.78078 125.96037 13314 ft 296 kts 259°
2026-04-25 10:23 45.77693 125.93132 14055 ft 298 kts 259°
2026-04-25 10:23 45.77302 125.90203 14715 ft 301 kts 259°
2026-04-25 10:23 45.76907 125.87244 15338 ft 304 kts 259°
2026-04-25 10:23 45.76505 125.84245 15946 ft 308 kts 259°
2026-04-25 10:24 45.76098 125.81209 16547 ft 312 kts 259°
2026-04-25 10:24 45.75686 125.78137 17149 ft 316 kts 259°
2026-04-25 10:24 45.75267 125.75029 17730 ft 320 kts 259°
2026-04-25 10:24 45.74842 125.71883 18287 ft 324 kts 259°
2026-04-25 10:25 45.74412 125.68701 18791 ft 327 kts 259°
2026-04-25 10:25 45.73981 125.65496 19301 ft 330 kts 259°
2026-04-25 10:25 45.73521 125.62308 19805 ft 333 kts 255°
2026-04-25 10:25 45.72606 125.59248 20305 ft 339 kts 242°
2026-04-25 10:26 45.71112 125.56593 20811 ft 349 kts 228°
2026-04-25 10:26 45.69096 125.54547 21307 ft 363 kts 214°
2026-04-25 10:26 45.66685 125.53259 21788 ft 374 kts 205°
2026-04-25 10:26 45.64183 125.52146 22270 ft 378 kts 205°
2026-04-25 10:27 45.61662 125.51037 22749 ft 381 kts 205°
2026-04-25 10:27 45.59116 125.49922 23228 ft 384 kts 205°
2026-04-25 10:27 45.56554 125.48795 23633 ft 387 kts 205°
2026-04-25 10:27 45.53973 125.47658 24025 ft 389 kts 205°
2026-04-25 10:28 45.51379 125.46517 24390 ft 391 kts 205°
2026-04-25 10:28 45.48766 125.45367 24767 ft 393 kts 205°
2026-04-25 10:28 45.46148 125.44210 25144 ft 395 kts 205°
2026-04-25 10:28 45.43517 125.43044 25514 ft 397 kts 205°
2026-04-25 10:29 45.40908 125.41888 25875 ft 399 kts 205°
2026-04-25 10:29 45.38247 125.40711 26235 ft 401 kts 205°
2026-04-25 10:29 45.35575 125.39537 26596 ft 403 kts 205°
2026-04-25 10:29 45.32886 125.38358 26959 ft 405 kts 205°
2026-04-25 10:30 45.30184 125.37173 27299 ft 407 kts 205°
2026-04-25 10:30 45.27463 125.35979 27659 ft 409 kts 205°
2026-04-25 10:30 45.24732 125.34785 27984 ft 411 kts 205°
2026-04-25 10:30 45.21988 125.33585 28310 ft 413 kts 205°
2026-04-25 10:31 45.19233 125.32378 28628 ft 415 kts 205°
2026-04-25 10:31 45.16466 125.31169 28928 ft 417 kts 205°
2026-04-25 10:31 45.13681 125.29956 29229 ft 419 kts 205°
2026-04-25 10:31 45.10880 125.28739 29536 ft 421 kts 205°
2026-04-25 10:32 45.08083 125.27474 29766 ft 420 kts 208°
2026-04-25 10:32 45.05503 125.25752 30004 ft 414 kts 217°
2026-04-25 10:32 45.03157 125.23452 30279 ft 406 kts 226°
2026-04-25 10:32 45.01144 125.20707 30657 ft 399 kts 234°
2026-04-25 10:33 44.99477 125.17631 31022 ft 393 kts 239°
2026-04-25 10:33 44.97915 125.14462 31391 ft 391 kts 239°
2026-04-25 10:33 44.96352 125.11318 31777 ft 390 kts 239°
2026-04-25 10:33 44.94788 125.08188 31955 ft 389 kts 239°
2026-04-25 10:34 44.93235 125.05091 31986 ft 385 kts 239°
2026-04-25 10:34 44.90146 124.98923 31987 ft 384 kts 239°
2026-04-25 10:35 44.87068 124.92771 31990 ft 384 kts 239°
2026-04-25 10:35 44.84010 124.86650 31990 ft 384 kts 239°
2026-04-25 10:36 44.80927 124.80506 31993 ft 384 kts 239°
2026-04-25 10:36 44.77825 124.74365 31960 ft 385 kts 239°
2026-04-25 10:37 44.74719 124.68221 31965 ft 386 kts 239°
2026-04-25 10:37 44.71595 124.62066 31970 ft 386 kts 238°
2026-04-25 10:38 44.68486 124.55953 31973 ft 386 kts 239°
2026-04-25 10:38 44.65364 124.49803 31965 ft 387 kts 238°
2026-04-25 10:39 44.62235 124.43647 31966 ft 388 kts 238°
2026-04-25 10:39 44.59189 124.37386 31973 ft 386 kts 245°
2026-04-25 10:40 44.57500 124.30329 31967 ft 383 kts 262°
2026-04-25 10:40 44.56915 124.22908 31968 ft 383 kts 263°
2026-04-25 10:41 44.56272 124.15553 31955 ft 383 kts 258°
2026-04-25 10:41 44.54306 124.08616 31954 ft 387 kts 240°
2026-04-25 10:42 44.51143 124.02456 31957 ft 390 kts 237°
2026-04-25 10:42 44.47933 123.96321 31962 ft 390 kts 237°
2026-04-25 10:43 44.44728 123.90180 31961 ft 391 kts 237°
2026-04-25 10:43 44.41544 123.83999 31941 ft 392 kts 238°
2026-04-25 10:44 44.38362 123.77813 31947 ft 392 kts 237°
2026-04-25 10:44 44.35167 123.71623 31948 ft 393 kts 237°
2026-04-25 10:45 44.31970 123.65432 31952 ft 393 kts 237°
2026-04-25 10:45 44.28763 123.59244 31934 ft 394 kts 237°
2026-04-25 10:46 44.25547 123.53059 31941 ft 394 kts 237°
2026-04-25 10:46 44.22316 123.46867 31964 ft 394 kts 237°
2026-04-25 10:47 44.19083 123.40686 31973 ft 395 kts 237°
2026-04-25 10:47 44.15861 123.34530 31967 ft 395 kts 237°
2026-04-25 10:48 44.12628 123.28342 31959 ft 395 kts 237°
2026-04-25 10:48 44.09385 123.22174 31966 ft 395 kts 237°
2026-04-25 10:49 44.06131 123.16009 31964 ft 395 kts 237°
2026-04-25 10:49 44.02877 123.09845 31936 ft 395 kts 237°
2026-04-25 10:50 43.99623 123.03681 31934 ft 396 kts 237°
2026-04-25 10:50 43.96361 122.97514 31939 ft 397 kts 237°
2026-04-25 10:51 43.93087 122.91348 31945 ft 397 kts 237°
2026-04-25 10:51 43.89899 122.85161 31952 ft 397 kts 238°
2026-04-25 10:52 43.86722 122.78903 31947 ft 397 kts 238°
2026-04-25 10:52 43.83528 122.72661 31953 ft 397 kts 238°
2026-04-25 10:53 43.80319 122.66437 31955 ft 397 kts 238°
2026-04-25 10:53 43.77103 122.60222 31959 ft 397 kts 238°
2026-04-25 10:54 43.73887 122.54002 31934 ft 397 kts 237°
2026-04-25 10:54 43.70666 122.47791 31938 ft 398 kts 237°
2026-04-25 10:55 43.67435 122.41577 31939 ft 398 kts 237°
2026-04-25 10:55 43.64205 122.35374 31938 ft 398 kts 237°
2026-04-25 10:56 43.60988 122.29215 31924 ft 398 kts 237°
2026-04-25 10:56 43.57746 122.23012 31925 ft 399 kts 237°
2026-04-25 10:57 43.54501 122.16807 31929 ft 399 kts 237°
2026-04-25 10:57 43.51823 122.11619 31959 ft 399 kts 238°
2026-04-25 10:58 43.48615 122.05392 31949 ft 397 kts 238°
2026-04-25 10:58 43.45414 121.99203 31950 ft 396 kts 238°
2026-04-25 10:59 43.42210 121.93038 31942 ft 396 kts 238°
2026-04-25 10:59 43.39001 121.86895 31938 ft 395 kts 238°
2026-04-25 11:00 43.35795 121.80765 31931 ft 395 kts 238°
2026-04-25 11:00 43.32609 121.74673 31908 ft 395 kts 238°
2026-04-25 11:01 43.29408 121.68557 31914 ft 395 kts 238°
2026-04-25 11:01 43.26194 121.62445 31914 ft 395 kts 238°
2026-04-25 11:02 43.22981 121.56347 31914 ft 395 kts 238°
2026-04-25 11:02 43.19762 121.50246 31896 ft 395 kts 238°
2026-04-25 11:03 43.16536 121.44143 31898 ft 395 kts 238°
2026-04-25 11:03 43.13303 121.38044 31902 ft 396 kts 238°
2026-04-25 11:04 43.10087 121.31979 31908 ft 396 kts 238°
2026-04-25 11:04 43.06829 121.25841 31894 ft 396 kts 238°
2026-04-25 11:05 43.03603 121.19786 31903 ft 397 kts 238°
2026-04-25 11:05 43.00348 121.13698 31904 ft 397 kts 238°
2026-04-25 11:06 42.97090 121.07614 31906 ft 397 kts 238°
2026-04-25 11:06 42.93832 121.01532 31895 ft 397 kts 238°
2026-04-25 11:07 42.90560 120.95448 31902 ft 398 kts 238°
2026-04-25 11:07 42.87283 120.89365 31919 ft 398 kts 238°
2026-04-25 11:08 42.84005 120.83281 31928 ft 398 kts 238°
2026-04-25 11:08 42.80724 120.77210 31926 ft 398 kts 238°
2026-04-25 11:09 42.77435 120.71154 31926 ft 398 kts 238°
2026-04-25 11:09 42.74144 120.65101 31925 ft 398 kts 238°
2026-04-25 11:10 42.70853 120.59052 31928 ft 398 kts 238°
2026-04-25 11:10 42.67556 120.53003 31907 ft 398 kts 237°
2026-04-25 11:11 42.64283 120.47006 31911 ft 398 kts 237°
2026-04-25 11:11 42.60981 120.40968 31912 ft 398 kts 237°
2026-04-25 11:12 42.57674 120.34932 31909 ft 399 kts 237°
2026-04-25 11:12 42.54357 120.28893 31892 ft 399 kts 237°
2026-04-25 11:13 42.51034 120.22850 31905 ft 400 kts 237°
2026-04-25 11:13 42.47698 120.16803 31914 ft 401 kts 237°
2026-04-25 11:14 42.44345 120.10753 31905 ft 401 kts 237°
2026-04-25 11:14 42.40989 120.04704 31892 ft 402 kts 237°
2026-04-25 11:15 42.37631 119.98654 31896 ft 402 kts 237°
2026-04-25 11:15 42.34268 119.92601 31904 ft 403 kts 237°
2026-04-25 11:16 42.29226 119.83553 31867 ft 403 kts 236°
2026-04-25 11:16 42.25840 119.77498 31908 ft 405 kts 237°
2026-04-25 11:17 42.22444 119.71428 31906 ft 405 kts 237°
2026-04-25 11:17 42.19047 119.65381 31893 ft 404 kts 237°
2026-04-25 11:18 42.15671 119.59375 31869 ft 404 kts 237°
2026-04-25 11:18 42.12270 119.53348 31868 ft 404 kts 237°
2026-04-25 11:19 42.08871 119.47324 31855 ft 404 kts 237°
2026-04-25 11:19 42.05468 119.41306 31850 ft 404 kts 237°
2026-04-25 11:20 42.02062 119.35307 31843 ft 404 kts 237°
2026-04-25 11:20 41.98647 119.29304 31843 ft 404 kts 237°
2026-04-25 11:21 41.95236 119.23318 31849 ft 403 kts 237°
2026-04-25 11:21 41.91828 119.17332 31850 ft 403 kts 237°
2026-04-25 11:22 41.88992 119.12355 31827 ft 404 kts 237°
2026-04-25 11:22 41.85018 119.05403 31834 ft 405 kts 237°
2026-04-25 11:23 41.83293 119.02399 31546 ft 407 kts 237°
2026-04-25 11:23 41.81567 118.99391 31213 ft 408 kts 236°
2026-04-25 11:23 41.79835 118.96374 30884 ft 411 kts 236°
2026-04-25 11:23 41.78080 118.93321 30575 ft 416 kts 236°
2026-04-25 11:24 41.76307 118.90238 30188 ft 419 kts 236°
2026-04-25 11:24 41.74615 118.87296 29828 ft 422 kts 236°
2026-04-25 11:24 41.72820 118.84177 29418 ft 424 kts 236°
2026-04-25 11:24 41.71015 118.81049 28987 ft 426 kts 236°
2026-04-25 11:25 41.69197 118.77906 28587 ft 427 kts 236°
2026-04-25 11:25 41.67381 118.74773 28173 ft 425 kts 236°
2026-04-25 11:25 41.65570 118.71649 27766 ft 424 kts 236°
2026-04-25 11:25 41.63776 118.68547 27376 ft 430 kts 236°
2026-04-25 11:26 41.61939 118.65372 26982 ft 431 kts 236°
2026-04-25 11:26 41.60104 118.62212 26595 ft 430 kts 236°
2026-04-25 11:26 41.58269 118.59059 26231 ft 429 kts 236°
2026-04-25 11:26 41.56441 118.55922 25840 ft 427 kts 236°
2026-04-25 11:27 41.54616 118.52793 25476 ft 426 kts 236°
2026-04-25 11:27 41.52799 118.49681 25112 ft 424 kts 236°
2026-04-25 11:27 41.50982 118.46576 24750 ft 423 kts 236°
2026-04-25 11:27 41.49810 118.44514 24508 ft 420 kts 239°
2026-04-25 11:28 41.47757 118.40107 24039 ft 417 kts 243°
2026-04-25 11:28 41.46254 118.36810 23693 ft 416 kts 243°
2026-04-25 11:28 41.44747 118.33520 23326 ft 415 kts 242°
2026-04-25 11:28 41.43241 118.30245 22908 ft 414 kts 242°
2026-04-25 11:29 41.41712 118.26909 22503 ft 429 kts 242°
2026-04-25 11:29 41.40147 118.23502 22105 ft 431 kts 242°
2026-04-25 11:29 41.38583 118.20107 21692 ft 430 kts 242°
2026-04-25 11:29 41.37040 118.16768 21302 ft 428 kts 242°
2026-04-25 11:30 41.35481 118.13406 20919 ft 426 kts 241°
2026-04-25 11:30 41.33911 118.10014 20533 ft 423 kts 241°
2026-04-25 11:30 41.32377 118.06692 20156 ft 421 kts 241°
2026-04-25 11:30 41.30852 118.03385 19782 ft 417 kts 241°
2026-04-25 11:31 41.29337 118.00111 19427 ft 415 kts 241°
2026-04-25 11:31 41.27824 117.96849 19058 ft 413 kts 241°
2026-04-25 11:31 41.26318 117.93608 18684 ft 410 kts 241°
2026-04-25 11:31 41.24839 117.90434 18333 ft 409 kts 240°
2026-04-25 11:32 41.23345 117.87229 17947 ft 406 kts 240°
2026-04-25 11:32 41.21863 117.84047 17553 ft 404 kts 240°
2026-04-25 11:32 41.20390 117.80890 17154 ft 401 kts 240°
2026-04-25 11:32 41.18924 117.77749 16759 ft 398 kts 240°
2026-04-25 11:33 41.17470 117.74635 16368 ft 396 kts 240°
2026-04-25 11:33 41.16021 117.71537 15988 ft 394 kts 240°
2026-04-25 11:33 41.14580 117.68461 15671 ft 392 kts 240°
2026-04-25 11:33 41.13143 117.65397 15413 ft 392 kts 240°
2026-04-25 11:34 41.11699 117.62322 15168 ft 391 kts 240°
2026-04-25 11:34 41.10259 117.59259 14916 ft 390 kts 240°
2026-04-25 11:34 41.08823 117.56212 14671 ft 390 kts 240°
2026-04-25 11:34 41.07389 117.53168 14432 ft 389 kts 240°
2026-04-25 11:35 41.05961 117.50137 14188 ft 388 kts 240°
2026-04-25 11:35 41.04328 117.47272 13959 ft 390 kts 231°
2026-04-25 11:35 41.02334 117.44839 13726 ft 390 kts 221°
2026-04-25 11:35 41.00057 117.42932 13606 ft 385 kts 211°
2026-04-25 11:36 40.97578 117.41539 13643 ft 388 kts 205°
2026-04-25 11:36 40.95057 117.40252 13641 ft 389 kts 205°
2026-04-25 11:36 40.92568 117.38982 13642 ft 388 kts 205°
2026-04-25 11:36 40.90050 117.37694 13645 ft 388 kts 205°
2026-04-25 11:37 40.87531 117.36404 13644 ft 388 kts 205°
2026-04-25 11:37 40.85005 117.35112 13649 ft 389 kts 205°
2026-04-25 11:37 40.82481 117.33827 13646 ft 389 kts 205°
2026-04-25 11:37 40.79953 117.32541 13650 ft 389 kts 205°
2026-04-25 11:38 40.77423 117.31254 13652 ft 389 kts 205°
2026-04-25 11:38 40.74966 117.29781 13653 ft 386 kts 214°
2026-04-25 11:38 40.72815 117.27719 13658 ft 381 kts 226°
2026-04-25 11:38 40.71057 117.25138 13658 ft 377 kts 237°
2026-04-25 11:39 40.69747 117.22173 13519 ft 373 kts 248°
2026-04-25 11:39 40.68830 117.19000 13249 ft 370 kts 252°
2026-04-25 11:39 40.67958 117.15833 12984 ft 366 kts 252°
2026-04-25 11:39 40.67085 117.12672 12724 ft 367 kts 252°
2026-04-25 11:40 40.66506 117.10589 12552 ft 366 kts 252°
2026-04-25 11:40 40.65332 117.06381 12209 ft 365 kts 251°
2026-04-25 11:40 40.64455 117.03254 11956 ft 364 kts 251°
2026-04-25 11:40 40.63580 117.00134 11722 ft 362 kts 251°
2026-04-25 11:41 40.62711 116.97030 11625 ft 361 kts 251°
2026-04-25 11:41 40.61845 116.93938 11647 ft 362 kts 251°
2026-04-25 11:41 40.60945 116.90886 11644 ft 362 kts 246°
2026-04-25 11:41 40.59608 116.88067 11645 ft 366 kts 233°
2026-04-25 11:42 40.57795 116.85692 11641 ft 370 kts 224°
2026-04-25 11:42 40.55842 116.83494 11646 ft 370 kts 224°
2026-04-25 11:42 40.53891 116.81301 11646 ft 369 kts 224°
2026-04-25 11:42 40.51937 116.79105 11647 ft 370 kts 224°
2026-04-25 11:43 40.49994 116.76920 11646 ft 369 kts 224°
2026-04-25 11:43 40.48037 116.74724 11642 ft 370 kts 223°
2026-04-25 11:43 40.46082 116.72532 11644 ft 370 kts 224°
2026-04-25 11:43 40.44054 116.70431 11643 ft 374 kts 216°
2026-04-25 11:44 40.41694 116.68999 11636 ft 369 kts 200°
2026-04-25 11:44 40.39193 116.68451 11648 ft 365 kts 185°
2026-04-25 11:44 40.36662 116.68681 11651 ft 367 kts 176°
2026-04-25 11:44 40.34132 116.69076 11652 ft 366 kts 176°
2026-04-25 11:45 40.31604 116.69469 11654 ft 366 kts 176°
2026-04-25 11:45 40.29077 116.69865 11656 ft 366 kts 176°
2026-04-25 11:45 40.26546 116.70263 11657 ft 366 kts 176°
2026-04-25 11:45 40.24016 116.70660 11659 ft 366 kts 176°
2026-04-25 11:46 40.21482 116.71056 11654 ft 367 kts 176°
2026-04-25 11:46 40.18974 116.71446 11658 ft 357 kts 176°
2026-04-25 11:46 40.16548 116.71828 11661 ft 346 kts 176°
2026-04-25 11:46 40.14174 116.72203 11650 ft 337 kts 176°
2026-04-25 11:47 40.11883 116.72564 11449 ft 327 kts 176°
2026-04-25 11:47 40.09637 116.72913 11132 ft 323 kts 176°
2026-04-25 11:47 40.07415 116.73256 10798 ft 319 kts 176°
2026-04-25 11:47 40.05225 116.73593 10484 ft 315 kts 176°
2026-04-25 11:48 40.03066 116.73926 10165 ft 311 kts 176°
2026-04-25 11:48 40.00928 116.74256 9880 ft 307 kts 176°
2026-04-25 11:48 39.98841 116.74581 9781 ft 298 kts 176°
2026-04-25 11:48 39.96783 116.74901 9791 ft 297 kts 176°
2026-04-25 11:49 39.94759 116.75216 9788 ft 297 kts 176°
2026-04-25 11:49 39.92716 116.75533 9482 ft 296 kts 176°
2026-04-25 11:49 39.90681 116.75848 9181 ft 293 kts 176°
2026-04-25 11:49 39.88663 116.76160 8886 ft 291 kts 176°
2026-04-25 11:50 39.86664 116.76468 8570 ft 288 kts 176°
2026-04-25 11:50 39.84684 116.76775 8301 ft 286 kts 176°
2026-04-25 11:50 39.82718 116.77081 8047 ft 283 kts 176°
2026-04-25 11:50 39.80767 116.77386 7808 ft 281 kts 176°
2026-04-25 11:51 39.78833 116.77686 7555 ft 281 kts 176°
2026-04-25 11:51 39.76895 116.77984 7309 ft 279 kts 176°
2026-04-25 11:51 39.74984 116.78278 7069 ft 277 kts 176°
2026-04-25 11:51 39.73080 116.78573 6913 ft 275 kts 176°
2026-04-25 11:52 39.71186 116.78866 6887 ft 274 kts 176°
2026-04-25 11:52 39.69294 116.79156 6892 ft 274 kts 176°
2026-04-25 11:52 39.67401 116.79444 6893 ft 274 kts 177°
2026-04-25 11:52 39.65505 116.79734 6899 ft 274 kts 177°
2026-04-25 11:53 39.63612 116.80024 6894 ft 274 kts 177°
2026-04-25 11:53 39.61718 116.80313 6896 ft 274 kts 177°
2026-04-25 11:53 39.59823 116.80472 6892 ft 271 kts 186°
2026-04-25 11:53 39.57975 116.80091 6894 ft 268 kts 199°
2026-04-25 11:54 39.56240 116.79307 6897 ft 268 kts 202°
2026-04-25 11:54 39.54482 116.78482 6900 ft 268 kts 202°
2026-04-25 11:54 39.51536 116.77114 6898 ft 269 kts 202°
2026-04-25 11:55 39.49773 116.76300 6899 ft 269 kts 202°
2026-04-25 11:55 39.48021 116.75491 6897 ft 262 kts 202°
2026-04-25 11:55 39.46321 116.74707 6897 ft 258 kts 202°
2026-04-25 11:55 39.44632 116.73926 6895 ft 257 kts 202°
2026-04-25 11:56 39.42948 116.73146 6897 ft 257 kts 202°
2026-04-25 11:56 39.41265 116.72366 6898 ft 256 kts 202°
2026-04-25 11:56 39.39588 116.71588 6893 ft 257 kts 202°
2026-04-25 11:56 39.37931 116.70794 6895 ft 257 kts 207°
2026-04-25 11:57 39.36492 116.69435 6890 ft 254 kts 231°
2026-04-25 11:57 39.35651 116.67463 6892 ft 252 kts 255°
2026-04-25 11:57 39.35547 116.65244 6891 ft 253 kts 278°
2026-04-25 11:57 39.36202 116.63130 6889 ft 258 kts 302°
2026-04-25 11:58 39.37531 116.61555 6900 ft 265 kts 328°
2026-04-25 11:58 39.39266 116.60674 6809 ft 270 kts 337°
2026-04-25 11:58 39.41042 116.59891 6567 ft 269 kts 338°
2026-04-25 11:58 39.42810 116.59117 6328 ft 269 kts 337°
2026-04-25 11:59 39.44583 116.58336 6089 ft 269 kts 337°
2026-04-25 11:59 39.46354 116.57550 5925 ft 270 kts 337°
2026-04-25 11:59 39.48128 116.56760 5901 ft 270 kts 336°
2026-04-25 12:00 39.51678 116.55175 5304 ft 266 kts 336°
2026-04-25 12:00 39.53419 116.54398 4986 ft 263 kts 335°
2026-04-25 12:00 39.56864 116.53296 4786 ft 253 kts 348°
2026-04-25 12:01 39.58599 116.53026 4536 ft 252 kts 347°
2026-04-25 12:01 39.60340 116.52752 4284 ft 252 kts 347°
2026-04-25 12:01 39.62067 116.52482 4037 ft 253 kts 347°
2026-04-25 12:01 39.63836 116.52207 3904 ft 252 kts 347°
2026-04-25 12:02 39.67301 116.51661 3903 ft 248 kts 347°
2026-04-25 12:02 39.68990 116.51402 3899 ft 236 kts 346°
2026-04-25 12:02 39.70591 116.51151 3898 ft 234 kts 346°
2026-04-25 12:03 39.72205 116.50893 3897 ft 234 kts 346°
2026-04-25 12:03 39.73793 116.50639 3892 ft 226 kts 346°
2026-04-25 12:03 39.75305 116.50353 3909 ft 211 kts 335°
2026-04-25 12:03 39.76444 116.49378 3897 ft 188 kts 296°
2026-04-25 12:04 39.76839 116.47875 3856 ft 174 kts 267°
2026-04-25 12:04 39.76747 116.46353 3596 ft 166 kts 254°
2026-04-25 12:04 39.76525 116.44888 3359 ft 164 kts 252°
2026-04-25 12:04 39.76285 116.43444 3118 ft 163 kts 249°
2026-04-25 12:05 39.75718 116.42252 3012 ft 156 kts 219°
2026-04-25 12:05 39.74834 116.41437 2992 ft 156 kts 213°
2026-04-25 12:05 39.73910 116.40689 2997 ft 156 kts 212°
2026-04-25 12:05 39.72981 116.39950 2994 ft 156 kts 212°
2026-04-25 12:06 39.72000 116.39349 2994 ft 159 kts 195°
2026-04-25 12:06 39.70876 116.39375 2999 ft 164 kts 180°
2026-04-25 12:06 39.69742 116.39559 2999 ft 164 kts 180°
2026-04-25 12:06 39.68606 116.39741 2995 ft 165 kts 180°
2026-04-25 12:07 39.67464 116.39923 2997 ft 165 kts 180°
2026-04-25 12:07 39.66321 116.40104 2998 ft 166 kts 181°
2026-04-25 12:07 39.65190 116.40283 2929 ft 166 kts 181°
2026-04-25 12:07 39.64048 116.40464 2764 ft 165 kts 181°
2026-04-25 12:08 39.62920 116.40645 2563 ft 155 kts 181°
2026-04-25 12:08 39.61909 116.40807 2386 ft 142 kts 182°
2026-04-25 12:08 39.60967 116.40956 2225 ft 134 kts 182°
2026-04-25 12:08 39.60054 116.41098 2045 ft 131 kts 182°
2026-04-25 12:09 39.59152 116.41239 1872 ft 130 kts 181°
2026-04-25 12:09 39.58256 116.41380 1704 ft 129 kts 181°
2026-04-25 12:09 39.57364 116.41520 1530 ft 129 kts 181°
2026-04-25 12:09 39.56468 116.41661 1357 ft 129 kts 180°
2026-04-25 12:10 39.55573 116.41802 1187 ft 129 kts 180°
2026-04-25 12:10 39.54674 116.41944 1015 ft 131 kts 178°
2026-04-25 12:10 39.53763 116.42087 841 ft 133 kts 179°
2026-04-25 12:10 39.52852 116.42233 657 ft 131 kts 177°
2026-04-25 12:11 39.51934 116.42378 466 ft 131 kts 176°
2026-04-25 12:11 39.51036 116.42520 307 ft 134 kts 175°
2026-04-25 12:11 39.50115 116.42666 133 ft 132 kts 173°
2026-04-25 12:11 39.49293 116.42800 99 ft 96 kts 173°
2026-04-25 12:12 39.48802 116.42878 94 ft 44 kts 173°
2026-04-25 12:12 39.48636 116.42903 97 ft 28 kts 173°
2026-04-25 12:12 39.48404 116.42860 96 ft 22 kts 200°
2026-04-25 12:12 39.48312 116.42785 91 ft 15 kts 261°
2026-04-25 12:13 39.48385 116.42722 88 ft 14 kts 353°
2026-04-25 12:13 39.48475 116.42708 91 ft 12 kts 353°
2026-04-25 12:13 39.48557 116.42695 89 ft 11 kts 353°
2026-04-25 12:13 39.48634 116.42682 88 ft 11 kts 353°
2026-04-25 12:14 39.48725 116.42668 86 ft 17 kts 353°
2026-04-25 12:14 39.48870 116.42645 88 ft 24 kts 353°
2026-04-25 12:14 39.49042 116.42619 88 ft 26 kts 353°
2026-04-25 12:14 39.49229 116.42589 87 ft 28 kts 353°
2026-04-25 12:15 39.49393 116.42556 88 ft 21 kts 339°
2026-04-25 12:15 39.49516 116.42458 87 ft 21 kts 327°
2026-04-25 12:15 39.49652 116.42407 88 ft 21 kts 353°
2026-04-25 12:15 39.49796 116.42385 87 ft 20 kts 353°
2026-04-25 12:16 39.49933 116.42364 88 ft 20 kts 353°
2026-04-25 12:16 39.50090 116.42339 87 ft 24 kts 353°
2026-04-25 12:16 39.50257 116.42312 86 ft 25 kts 353°
2026-04-25 12:16 39.50430 116.42285 87 ft 23 kts 353°
2026-04-25 12:17 39.50583 116.42261 88 ft 21 kts 353°
2026-04-25 12:17 39.50721 116.42240 87 ft 20 kts 353°
2026-04-25 12:17 39.50853 116.42219 87 ft 18 kts 353°
2026-04-25 12:17 39.50975 116.42200 87 ft 18 kts 353°
2026-04-25 12:18 39.51076 116.42184 87 ft 10 kts 353°
2026-04-25 12:18 39.51111 116.42135 88 ft 8 kts 268°
2026-04-25 12:18 39.51104 116.42065 86 ft 9 kts 263°
2026-04-25 12:18 39.51094 116.41962 85 ft 12 kts 263°
2026-04-25 12:19 39.51108 116.41820 88 ft 8 kts 317°
2026-04-25 12:19 39.51161 116.41759 86 ft 6 kts 319°
2026-04-25 12:19 39.51193 116.41724 86 ft 6 kts 319°
2026-04-25 12:20 39.51211 116.41704 89 ft 3 kts 319°
2026-04-25 12:20 39.51220 116.41694 88 ft 1 kts 319°
2026-04-25 12:20 39.51222 116.41691 86 ft 0 kts 319°
2026-04-25 12:20 39.51223 116.41690 86 ft 0 kts 319°